Flag for U.S.A. Weather past 2 weeks in Raleigh, North Carolina, U.S.A.

Now
75 °F

Low clouds.


Feels Like: 74 °F
Forecast: 71 / 89 °F
Wind: 3 mph from South

Location: Raleigh-Durham International Airport

Current Time: Aug 31, 2014 at 6:56:58 AM

Latest Report: Aug 31, 2014 at 5:51 AM


Visibility: 10 mi

Pressure: 30.16 "Hg

Humidity: 88%

Dew point: 71 °F

Location of RaleighLocation

Historic Weather in Raleigh — Graph

°F

Raleigh temperature yesterday

Maximum temperature yesterday: 88 °F (at 2:51 PM)
Minimum temperature yesterday: 72 °F (at 4:51 AM)
Average temperature yesterday: 79 °F

Past Weeks' High & Low Weather Summary

 TemperatureHumidityPressure
High91 °F (Aug 28, 3:51 PM)94% (Aug 18, 9:03 PM)30.22 "Hg (Aug 18, 9:03 PM)
Low59 °F (Aug 27, 4:51 AM)39% (Aug 27, 4:51 PM)29.77 "Hg (Aug 19, 3:51 AM)
Average76 °F75%30.01 "Hg
* Reported Aug 16 5:51 AM — Aug 31 5:51 AM, Raleigh, Weather by CustomWeather, © 2014

Note: Actual official high and low records may vary slightly from our data, if they occured in-between our weather recording intervals... More about our weather records

Advertising

Raleigh weather history for previous 24 hours

 ConditionsComfort  
Time TempWeatherWind HumidityBarometerVisibility
5:51 AM
Aug 31
75 °FLow clouds.3 mph88%30.16 "Hg10 mi
4:51 AM75 °FOvercast.3 mph88%30.15 "Hg10 mi
3:51 AM75 °FPassing clouds.5 mph88%30.14 "Hg10 mi
2:51 AM75 °FPassing clouds.3 mph88%30.15 "Hg10 mi
1:51 AM76 °FPartly cloudy.5 mph85%30.16 "Hg10 mi
12:51 AM77 °FPartly cloudy.7 mph82%30.16 "Hg10 mi
11:51 PM
Aug 30
77 °FPartly cloudy.7 mph82%30.16 "Hg10 mi
10:51 PM78 °FPartly cloudy.5 mph79%30.15 "Hg10 mi
9:51 PM79 °FPassing clouds.6 mph77%30.14 "Hg10 mi
8:51 PM80 °FPassing clouds.5 mph74%30.14 "Hg10 mi
7:51 PM82 °FScattered clouds.5 mph67%30.12 "Hg10 mi
6:51 PM85 °FScattered clouds.7 mph61%30.11 "Hg10 mi
5:51 PM87 °FScattered clouds.8 mph57%30.11 "Hg10 mi
4:51 PM88 °FScattered clouds.7 mph55%30.12 "Hg10 mi
3:51 PM88 °FScattered clouds.6 mph55%30.13 "Hg10 mi
2:51 PM88 °FScattered clouds.5 mph55%30.16 "Hg10 mi
1:51 PM86 °FScattered clouds.7 mph59%30.18 "Hg10 mi
12:51 PM85 °FPartly sunny.3 mph63%30.20 "Hg10 mi
11:51 AM83 °FScattered clouds.No wind70%30.21 "Hg10 mi
10:51 AM79 °FScattered clouds.No wind77%30.22 "Hg10 mi
9:51 AM76 °FPartly sunny.3 mph82%30.22 "Hg10 mi
8:51 AM73 °FLow clouds.3 mph84%30.22 "Hg9 mi
7:51 AM73 °FLow clouds.3 mph81%30.22 "Hg10 mi
6:51 AM72 °FLow clouds.3 mph84%30.21 "Hg10 mi
Weather by CustomWeather, © 2014

See weather overviewHow to use our weather pages